User: anonymous   Login
Location: Morlupo
(42.1333°N, 12.5000°E)
Time: 17:02:22
(UTC+00:00)
Language:

Ariane Rocket - Orbit

View from above orbital plane
View from above orbital plane
View from above satellite
View from above satellite

Ground track
Ground track

The orbit data is extracted from the following two-line orbital elements,

1 23561U 95021B   20333.74551573  .00000083  00000-0  42414-4 0  9992
2 23561  98.7047  15.2939 0007889 123.2331 347.0206 14.37994983342402
Epoch (UTC): 28 November 2020 17:53:32
Eccentricity: 0.0007889
inclination: 98.7047°
perigee height: 759 km
apogee height: 771 km
right ascension of ascending node: 15.2939°
argument of perigee: 123.2331°
revolutions per day: 14.37994983
mean anomaly at epoch: 347.0206°
orbit number at epoch: 34240

The dashed part of the orbit path shows where the satellite is in the earth's shadow,  

DLR